Regional Weather Roundup
Issued by NWS Midland/Odessa, TX

Skip options and go directly to product.
Home | Oldest Version | Previous Version | Current Version | All | Text Only | Save Text | Print | Product List | Glossary On

Skip product version selection by date and time.   
333
ASUS44 KMAF 292101
RWRMAF
MIDLAND AREA WEATHER ROUNDUP
NATIONAL WEATHER SERVICE MIDLAND TX
400 PM CDT SUN MAY 29 2016

...IN SOUTHWEST TEXAS AND SOUTHEAST NEW MEXICO...

CITY           SKY/WX    TMP DP  RH WIND       PRES   REMARKS
ALPINE         CLOUDY    80  57  45 N3        30.19F
ANDREWS        FAIR      80  63  55 S14G23    30.10F
ARTESIA        CLOUDY    86  48  26 E7        30.02F
BIG SPRING     MOSUNNY   82  62  49 S20G29    30.10F
CARLSBAD       TSTM      78  62  57 SE20G26   30.02F
DRYDEN           N/A     81  69  67 E14       30.03F
FORT STOCKTON  NOT AVBL
GUAD PASS      NOT AVBL
HOBBS          MOSUNNY   81  63  54 SE17      30.09F
MARFA          CLOUDY    80  55  42 VRB6      30.16F
MIDLAND AIRPK  CLOUDY    83  63  51 S17G25    30.10F
MIDLAND INTL   CLOUDY    80  64  58 S20G25    30.08F
ODESSA         CLOUDY    79  64  60 S15G22    30.08F
PECOS          CLOUDY    86  64  46 SE18G24   30.02F
PRESIDIO       NOT AVBL
SEMINOLE       PTSUNNY   82  61  48 S17G23    30.10F
SNYDER           N/A     84  66  54 S10G16    30.06F
WINK           NOT AVBL
$$
...OTHER STATIONS IN TEXAS...

CITY           SKY/WX    TMP DP  RH WIND       PRES   REMARKS
ABILENE        SUNNY     87  63  44 S12       30.05F
AMARILLO       CLOUDY    59  51  75 NE26G36   30.13R THUNDER
AUSTIN         PTSUNNY   89  70  53 SE13      30.02F
BROWNSVILLE    PTSUNNY   86  74  67 SE18      29.98F
CORPUS CHRISTI PTSUNNY   86  74  67 SE16      30.01F
DALLAS FTW     MOSUNNY   88  68  51 E13       30.03F
DEL RIO        CLOUDY    85  69  58 SE7       29.99F
EL PASO        MOSUNNY   92  19   7 VRB6      30.03F
HOUSTON INT    MOSUNNY   86  68  54 S7        30.04F
LUBBOCK        PTSUNNY   84  62  47 S21G29    30.04F
SAN ANGELO     MOSUNNY   89  66  46 SW13G23   30.04F
SAN ANTONIO    PTSUNNY   87  69  54 SE14G22   30.03F
WACO           MOSUNNY   89  67  47 S13       30.04S
WICHITA FALLS  NOT AVBL
$$
...OTHER LOCATIONS IN NEW MEXICO...

CITY           SKY/WX    TMP DP  RH WIND       PRES   REMARKS
ALAMAGORDO     SUNNY     88  23   9 S10G18    30.05F
ALBUQUERQUE    MOSUNNY   85  15   7 W15       30.09F
CANNON AFB     NOT AVBL
CLOVIS         CLOUDY    75  57  53 S15       30.08F
HOLLOMAN AFB   MOSUNNY   89  21   8 S13G22    30.02F
ROSWELL        CLOUDY    88  41  19 S22G32    30.03F
RUIDOSO        SUNNY     75  37  25 SE12G17   30.24F
SANTA FE       SUNNY     84  10   6 SW18G30   30.13F
TRUTH OR CONSE SUNNY     86  18   8 S16G30    30.05F
TUCUMCARI      LGT RAIN  69  49  48 E16G24    30.06F
$$

USA.gov is the U.S. government's official web portal to all federal, state and local government web resources and services.